Tracking 29892 objects as of 21-Nov-2024
HD Live streaming from Space Station
objects crossing your sky now

COSMOS 1503

Track COSMOS 1503 now!
10-day predictions
COSMOS 1503 is classified as:


NORAD ID: 14401
Int'l Code: 1983-103A
Perigee: 779.6 km
Apogee: 799.3 km
Inclination: 74.0 °
Period: 100.5 minutes
Semi major axis: 7160 km
RCS: 2.2071 m2 (large)
Launch date: October 12, 1983
Source: Commonwealth of Independent States (former USSR) (CIS)
Launch site: PLESETSK MISSILE AND SPACE COMPLEX (PKMTR)
Your satellite tracking list
Your tracking list is empty




NASA's NSSDC Master Catalog

Two Line Element Set (TLE):
1 14401U 83103A   24324.63067580  .00000333  00000-0  13161-3 0  9999
2 14401  74.0444  82.7546 0013718 340.7010  19.3620 14.32828651147184
Source of the keplerian elements: AFSPC